Location: Boiro
(42.6475°N, 8.8834°W)
Time: 04:54:27
(UTC+01:00)

Transit 4A - Pass Details

Date: 01 December 2021
Orbit: 864 x 980 km, 66.8° (Epoch: 17 January)

Event Time Altitude Azimuth Distance (km) Brightness Sun altitude
Exits shadow 05:35:10 37° 29° (NNE) 1,463 9.0 -34.4°
Maximum altitude 05:36:10 39° 50° (NE) 1,412 9.1 -34.3°
Drops below altitude 10° 05:42:04 10° 118° (ESE) 2,717 11.0 -33.2°
Sets 05:44:50 0° 126° (SE) 3,668 11.7 -32.7°
